Tracking 31027 objects as of 19-Jul-2025
HD Live streaming from Space Station
objects crossing your sky now

BREEZE-M DEB

Track BREEZE-M DEB now!
10-day predictions


NORAD ID: 32036
Int'l Code: 2006-006P
Perigee: 475.5 km
Apogee: 14,611.0 km
Inclination: 51.7 °
Period: 272.2 minutes
Semi major axis: 13914 km
RCS: 0.044 m2 (small)
Launch date: February 28, 2006
Source: Commonwealth of Independent States (former USSR) (CIS)
Launch site: TYURATAM MISSILE AND SPACE COMPLEX (TTMTR)

Note: This is SATELLITE DEBRIS
Your satellite tracking list
ATLAS 5 CENTAUR DEB
Track 1 satellite(s)




NASA's NSSDC Master Catalog

Two Line Element Set (TLE):
1 32036U 06006P   25194.07562782  .00000231  00000-0  35478-3 0  9990
2 32036  51.7330  11.1496 5079485 228.3521  75.5085  5.28948338352569
Source of the keplerian elements: AFSPC